User: anonymous   Login
Location: *
(43.9905°S, 176.4941°W)
Time: 06:39:05
(UTC+00:00)
Language:

Aureole 2 Rocket - Orbit

View from above orbital plane
View from above orbital plane
View from above satellite
View from above satellite

Ground track
Ground track

The orbit data is extracted from the following two-line orbital elements,

1  7004U 73107B   20049.75109924 +.00018978 +00000-0 +16778-3 0  9996
2  7004 073.9247 065.7452 0106885 042.2561 318.6830 15.61339582388531
Epoch (UTC): 18 February 2020 18:01:34
Eccentricity: 0.0106885
inclination: 73.9247°
perigee height: 311 km
apogee height: 456 km
right ascension of ascending node: 65.7452°
argument of perigee: 42.2561°
revolutions per day: 15.61339582
mean anomaly at epoch: 318.6830°
orbit number at epoch: 38853

The dashed part of the orbit path shows where the satellite is in the earth's shadow,  

DLR